Location: Potawatomi Wildlife Park
(41.2308°N, 86.1050°W)
Time: 16:39:06
(UTC-04:00)

HST - Visible Passes

Search period start: 25 October 2014 00:00
Search period end: 03 November 2014 23:00
Orbit: 546 x 550 km, 28.5° (Epoch: 24 October)

Date Brightness Start Highest point End Pass type
(mag) Time Alt. Az. Time Alt. Az. Time Alt. Az.
26 Oct 3.3 20:42:54 10° SSW 20:43:54 12° S 20:43:54 12° S visible
27 Oct 3.1 20:35:05 10° SSW 20:37:01 13° S 20:37:03 13° S visible
28 Oct 3.0 20:27:26 10° SSW 20:29:35 14° S 20:30:11 13° SSE visible
29 Oct 3.0 20:19:54 10° SSW 20:22:08 14° S 20:23:18 13° SSE visible
30 Oct 3.1 20:12:27 10° SW 20:14:41 14° S 20:16:25 11° SSE visible
31 Oct 3.2 20:05:06 10° SW 20:07:14 14° S 20:09:22 10° SSE visible
01 Nov 3.3 19:57:50 10° SW 19:59:46 13° S 20:01:41 10° SSE visible
02 Nov 3.4 18:50:44 10° SSW 18:52:17 12° S 18:53:50 10° SSE visible
03 Nov 3.6 18:44:02 10° SSW 18:44:47 10° SSW 18:45:31 10° S visible
